Skip Page Navigation
NASA JPL Caltech
NASA Logo - Jet Propulsion Laboratory + View the NASA Portal
+ Center for Near-Earth Object Studies
JPL Home Earth Solar System Stars & Galaxies Technology
JPL Solar System Dynamics
BODIES ORBITS EPHEMERIDES TOOLS PHYSICAL DATA DISCOVERY FAQ SITE MAP
IMPORTANT: The SSD Announcement email list is now available. Major changes are coming in the near future, including possible hostname and/or URL changes. To be notified of such changes, subscribe to this email list.

Please visit this page for more details.


JPL Small-Body Database Browser
Search: [ help ]  
71413 (2000 AQ185)
Classification: Main-belt Asteroid          SPK-ID: 2071413
Ephemeris | Orbit Diagram | Orbital Elements | Mission Design | Physical Parameters | Discovery Circumstances ]

[ show orbit diagram ]
Orbital Elements at Epoch 2459000.5 (2020-May-31.0) TDB
Reference: JPL 27 (heliocentric ecliptic J2000)
 Element Value Uncertainty (1-sigma)   Units 
e .150928282387338 3.6202e-08  
a 2.649897971983029 1.3018e-08 au
q 2.24995342256994 9.5551e-08 au
i 12.92723245392048 5.7135e-06 deg
node 185.8332525701188 1.718e-05 deg
peri 288.2361168066114 2.5587e-05 deg
M 217.2781341608808 1.7926e-05 deg
tp 2459625.140544157908
(2022-Feb-14.64054416)
7.8867e-05 TDB
period 1575.586155455173
4.31
1.161e-05
3.179e-08
d
yr
n .2284863945735796 1.6837e-09 deg/d
Q 3.049842521396118 1.4983e-08 au
  Orbit Determination Parameters
   # obs. used (total)      1214  
   data-arc span      10094 days (27.64 yr)  
   first obs. used      1992-01-13  
   last obs. used      2019-09-02  
   planetary ephem.      DE431  
   SB-pert. ephem.      SB431-N16  
   condition code      0  
   norm. resid. RMS      .53706  
   source      ORB  
   producer      Otto Matic  
   solution date      2019-Sep-24 02:40:09  

Additional Information
 Earth MOID = 1.30367 au 
 Jupiter MOID = 2.1396 au 
 T_jup = 3.339 
[ show covariance matrix ]

Ephemeris | Orbit Diagram | Orbital Elements | Mission Design | Physical Parameters | Discovery Circumstances ]

Physical Parameter Table
Parameter Symbol Value Units Sigma Reference Notes
absolute magnitude H 14.1   n/a MPO449451  
diameter diameter 5.874 km 0.127 urn:nasa:pds:neowise_diameters_albedos::2.0[mainbelt] (http://adsabs.harvard.edu/abs/2011ApJ...741...68M)  
geometric albedo albedo 0.142   0.021 urn:nasa:pds:neowise_diameters_albedos::2.0[mainbelt] (http://adsabs.harvard.edu/abs/2011ApJ...741...68M)  

71413 (2000 AQ185)          Discovered 2000-Jan-08 by LINEAR at Socorro
Reference: 20031109/Numbers.arcLast Updated: 2004-04-19

Alternate Designations
 2000 AQ185 = 1992 AZ3 
Ephemeris | Orbit Diagram | Orbital Elements | Mission Design | Physical Parameters | Discovery Circumstances ]
ABOUT SSD CREDITS/AWARDS PRIVACY/COPYRIGHT GLOSSARY LINKS
FirstGov 2020-Feb-20 11:09 UT
(server date/time)  
NASA Home Page
Site Manager:   Ryan S. Park
Webmaster  Alan B. Chamberlin